Regional Weather Roundup
Issued by NWS

Home | Current Version | Previous Version | Graphics & Text | Print | Product List | Glossary On
Versions: 1 2 3 4 5 6 7 8 9 10 11 12 13 14 15 16 17 18 19 20 21 22 23 24 25 26 27 28 29 30 31 32 33 34 35 36 37 38 39 40 41 42 43 44 45 46 47 48 49 50
000
ASUS45 KABQ 221801
RWRNM
NEW MEXICO REGIONAL WEATHER ROUNDUP
NATIONAL WEATHER SERVICE ALBUQUERQUE NM
1200 PM MDT SAT JUL 22 2017

NOTE: "FAIR" MEANS FEW OR NO CLOUDS BELOW 12,000 FEET AGL WITH NO
       SIGNIFICANT WEATHER OR OBSTRUCTIONS TO VISION.

      THIS PRODUCT IS RELEASED AS TWO VERSIONS.  ONE VERSION NEAR
      THE TOP OF THE HOUR CONTAINING PRELIMINARY DATA FROM ALBUQUERQUE
      AND OTHER STATIONS.  A FINAL VERSION WITH ADDITIONAL DATA IS
      ISSUED ABOUT 10 MINUTES AFTER THE HOUR.

NMZ501-503-504-510>518-221900-
NORTHWEST PLATEAU/NORTHCENTRAL MOUNTAINS

CITY           SKY/WX    TMP DP  RH WIND       PRES   REMARKS
FARMINGTON     FAIR      81  55  40 VRB6      30.18F
6HR MIN TEMP:  64; 6HR MAX TEMP:  82;

LOS ALAMOS     FAIR      79  43  28 CALM      30.31F
SANTA FE       FAIR      82  52  35 SW7       30.23F
6HR MIN TEMP:  59; 6HR MAX TEMP:  83;

TAOS           FAIR      81  48  32 CALM      30.30F
ANGEL FIRE     FAIR      73  51  45 SE14      30.41S

$$
NMZ402-403-502-505>509-221900-
WESTCENTRAL MOUNTAINS/SOUTHWEST MOUNTAINS

CITY           SKY/WX    TMP DP  RH WIND       PRES   REMARKS
GALLUP         FAIR      82  52  35 VRB7      30.25F
6HR MIN TEMP:  59; 6HR MAX TEMP:  82;

GRANTS         FAIR      82  49  31 SE14G21   30.27F
SILVER CITY    PTSUNNY   76  60  57 E8        30.20S

$$
NMZ407-409-411-412-221900-
SOUTHERN DESERTS

CITY           SKY/WX    TMP DP  RH WIND       PRES   REMARKS
DEMING         FAIR      84  63  49 CALM      30.12F
6HR MIN TEMP:  68; 6HR MAX TEMP:  84;

LAS CRUCES     PTSUNNY   81  65  58 E7        30.14F
HOLLOMAN AFB   FAIR      90  61  38 SW7       30.12F
ALAMOGORDO     FAIR      82  61  47 SW8       30.12F
T OR C         FAIR      83  58  42 S10G16    30.14F
6HR MIN TEMP:  69; 6HR MAX TEMP:  83;


$$
NMZ519>523-221900-
CENTRAL VALLEYS/CENTRAL HIGHLANDS

CITY           SKY/WX    TMP DP  RH WIND       PRES   REMARKS
ALBUQUERQUE    FAIR      83  58  42 W7        30.18F
6HR MIN TEMP:  67; 6HR MAX TEMP:  83;

DOUBLE EAGLE   MOSUNNY   82  57  42 VRB7      30.22F
MORIARTY ARPT  PTSUNNY   84  48  28 S3        30.24F
6HR MIN TEMP:  53; 6HR MAX TEMP:  86;

CLINES CORNERS FAIR      79  43  27 CALM      30.30S
6HR MIN TEMP:  57; 6HR MAX TEMP:  82;

BELEN          NOT AVBL
SOCORRO        FAIR      85  55  35 S8G16     30.14F
6HR MIN TEMP:  65; 6HR MAX TEMP:  85;


$$
NMZ524>526-539-540-221900-
SOUTHCENTRAL MOUNTAINS

CITY           SKY/WX    TMP DP  RH WIND       PRES   REMARKS
RUIDOSO        PTSUNNY   77  50  38 E8        30.31S

$$
NMZ527>531-221900-
NORTHEAST HIGHLANDS/NORTHEAST PLAINS

CITY           SKY/WX    TMP DP  RH WIND       PRES   REMARKS
LAS VEGAS      FAIR      81  44  27 MISG      30.29S
6HR MIN TEMP:  56; 6HR MAX TEMP:  81;

RATON          FAIR      84  48  28 VRB6      30.23F
6HR MIN TEMP:  63; 6HR MAX TEMP:  84;

CLAYTON        FAIR      88  53  30 NE9       30.15S
6HR MIN TEMP:  66; 6HR MAX TEMP:  89;


$$
NMZ532>537-221900-
EASTCENTRAL PLAINS

CITY           SKY/WX    TMP DP  RH WIND       PRES   REMARKS
SANTA ROSA     FAIR      91  48  23 NE3       30.11F
TUCUMCARI      FAIR      93  53  25 VRB5      30.05F
6HR MIN TEMP:  71; 6HR MAX TEMP:  93;

CANNON AFB     FAIR      90  54  28 E7        30.10F
6HR MIN TEMP:  67; 6HR MAX TEMP:  90;

CLOVIS AIRPORT FAIR      89  56  32 E6        30.10F

$$
NMZ028-029-538-221900-
SOUTHEAST PLAINS

CITY           SKY/WX    TMP DP  RH WIND       PRES   REMARKS
ROSWELL        FAIR      90  58  33 VRB6      30.04F
6HR MIN TEMP:  68; 6HR MAX TEMP:  92;

ARTESIA        FAIR      91  57  31 VRB5      30.05F
CARLSBAD       FAIR      90  62  39 E7        30.03F
6HR MIN TEMP:  72; 6HR MAX TEMP:  90;

HOBBS          MOSUNNY   86  63  45 SE7       30.09S


$$




USA.gov is the U.S. government's official web portal to all federal, state and local government web resources and services.